Погода в Кукарке

Россия / Омская область     56°56′22″N   75°03′40″E
темп.,
°C
ветер,
м/с
пор.,
м/с
влажн.,
%
обл.,
%
осадки,
мм/ч
давл.,
гПа
погр.,
м
15 мая, сб
сб1500:00+14юз4135879 0.0 1020255
03:00+12зсз227486 0.1 102043
06:00+13юз412785 1.3 1019307
09:00+19зюз485356 0.0 1018415
12:00+26з483571 0.0 10161190
15:00+26зсз493442 0.0 10151067
18:00+28зсз493256 0.0 10142953
21:00+18юз3866100 0.0 1014158
16 мая, вс
вс1600:00+16сз387799 0.6 1015222
03:00+14зюз238916 0.4 101466
06:00+14з2889100 0.4 1014229
09:00+19зсз2567100 0.0 1013615
12:00+24з4747100 0.0 10131698
15:00+24зсз5948100 0.1 10122147
18:00+18св468285 1.8 1014668
21:00+14ссв378610 0.1 1016473
17 мая, пн
пн1700:00+11ссв23975 0.1 101871
03:00+10вюв11975 0.0 101815
06:00+11ю24945 0.0 1018137
09:00+16юз47676 0.0 1017633
12:00+22юз584636 0.0 10151163
15:00+28з51232100 0.0 10122975
18:00+28сз4113356 0.0 10113202
21:00+21зюз225844 0.0 101028
18 мая, вт
вт1800:00+14зюз2387100 0.6 101190
03:00+13зсз269544 0.0 1010143
06:00+13з29925 0.0 1011337
09:00+18сз467560 0.0 1010745
12:00+22сз475011 0.1 10101715
15:00+22ссз574899 0.1 10091679
18:00+16с2681100 5.4 1011450
21:00+13св378681 0.0 1013317
19 мая, ср
ср1900:00+11св3686100 0.1 1013544
03:00+10ссв3787100 0.1 1014541
06:00+9ссв3885100 0.2 1017713
09:00+12ссв475437 0.0 10181366
12:00+16ссв463816 0.0 10182038
15:00+15с463980 0.0 10192156
18:00+15ссз474265 0.0 10201793
21:00+11с4104595 0.0 1022453